This is the latest recevied weather packets stored in our database for station/object KE0FIN. If no packets are shown the sender has not sent any weather packets the latest 10 day(s).
| Time | Temp. | Humidity | Pressure | Rain* | Wind** | Luminosity | Snow |
|---|---|---|---|---|---|---|---|
| 1778011750 | 10° C | 78% | 1063.8 hPa | 0 mm | - | 98 W/m² | - |
| 1778011447 | 10.56° C | 77% | 1063.6 hPa | 0 mm | - | 107 W/m² | - |
| 1778011142 | 10.56° C | 78% | 1063.6 hPa | 0 mm | - | 162 W/m² | - |
| 1778010839 | 10° C | 78% | 1063.9 hPa | 0 mm | - | 129 W/m² | - |
| 1778010536 | 10° C | 78% | 1063.9 hPa | 0 mm | - | 102 W/m² | - |
| 1778010235 | 10° C | 77% | 1063.8 hPa | 0 mm | - | 87 W/m² | - |
| 1778009934 | 10° C | 75% | 1064 hPa | 0 mm | - | 93 W/m² | - |
| 1778009633 | 10° C | 74% | 1063.9 hPa | 0 mm | - | 82 W/m² | - |
| 1778009330 | 10° C | 73% | 1063.6 hPa | 0 mm | - | 83 W/m² | - |
| 1778009028 | 10.56° C | 73% | 1063.7 hPa | 0 mm | - | 105 W/m² | - |
| 1778008725 | 10.56° C | 73% | 1063.8 hPa | 0 mm | - | 132 W/m² | - |
| 1778008424 | 10.56° C | 75% | 1063.9 hPa | 0 mm | - | 164 W/m² | - |
| 1778008120 | 10.56° C | 76% | 1063.8 hPa | 0 mm | - | 122 W/m² | - |
| 1778007816 | 10.56° C | 78% | 1063.6 hPa | 0 mm | - | 106 W/m² | - |
| 1778007511 | 10.56° C | 78% | 1063.5 hPa | 0 mm | - | 64 W/m² | - |
| 1778007208 | 10.56° C | 77% | 1063.4 hPa | 0 mm | - | 79 W/m² | - |
| 1778006904 | 10.56° C | 76% | 1063.4 hPa | 0 mm | - | 68 W/m² | - |
| 1778006601 | 10.56° C | 75% | 1063.7 hPa | 0 mm | - | 81 W/m² | - |
| 1778006299 | 11.11° C | 74% | 1063.7 hPa | 0 mm | - | 125 W/m² | - |
| 1778005995 | 11.11° C | 75% | 1063.4 hPa | 0 mm | - | 234 W/m² | - |
| 1778005692 | 11.11° C | 74% | 1063.7 hPa | 0 mm | - | 196 W/m² | - |
| 1778005389 | 11.11° C | 74% | 1063.6 hPa | 0 mm | - | 243 W/m² | - |
| 1778005085 | 10.56° C | 75% | 1063.8 hPa | 0 mm | - | 221 W/m² | - |
| 1778004783 | 10.56° C | 77% | 1063.6 hPa | 0 mm | - | 250 W/m² | - |
| 1778004479 | 10° C | 76% | 1063.6 hPa | 0 mm | - | 297 W/m² | - |
* Rain latest hour (hover to see other rain measurements)
** Current wind speed in m/s (hover to see current wind gust speed)